﻿測定場所 (Monitoring sites),日付 (Measurement date),時間 (Measurement time),線量率 最大値 (max) μGy/h,線量率 最小値 (min) μGy/h,線量率 平均値 (average) μGy/h,
足立 (Adachi),2015-12-13,23:01～24:00,0.0366,0.0323,0.0344,
足立 (Adachi),2015-12-13,22:01～23:00,0.0366,0.0317,0.0345,
足立 (Adachi),2015-12-13,21:01～22:00,0.0362,0.0326,0.0346,
足立 (Adachi),2015-12-13,20:01～21:00,0.0368,0.0331,0.0350,
足立 (Adachi),2015-12-13,19:01～20:00,0.0364,0.0320,0.0343,
足立 (Adachi),2015-12-13,18:01～19:00,0.0371,0.0333,0.0349,
足立 (Adachi),2015-12-13,17:01～18:00,0.0377,0.0328,0.0351,
足立 (Adachi),2015-12-13,16:01～17:00,0.0422,0.0347,0.0372,
足立 (Adachi),2015-12-13,15:01～16:00,0.0476,0.0367,0.0421,
足立 (Adachi),2015-12-13,14:01～15:00,0.0475,0.0415,0.0449,
足立 (Adachi),2015-12-13,13:01～14:00,0.0447,0.0380,0.0410,
足立 (Adachi),2015-12-13,12:01～13:00,0.0435,0.0364,0.0407,
足立 (Adachi),2015-12-13,11:01～12:00,0.0452,0.0373,0.0414,
足立 (Adachi),2015-12-13,10:01～11:00,0.0420,0.0346,0.0379,
足立 (Adachi),2015-12-13,09:01～10:00,0.0377,0.0341,0.0361,
足立 (Adachi),2015-12-13,08:01～09:00,0.0376,0.0337,0.0354,
足立 (Adachi),2015-12-13,07:01～08:00,0.0377,0.0331,0.0351,
足立 (Adachi),2015-12-13,06:01～07:00,0.0375,0.0329,0.0348,
足立 (Adachi),2015-12-13,05:01～06:00,0.0364,0.0330,0.0348,
足立 (Adachi),2015-12-13,04:01～05:00,0.0368,0.0325,0.0347,
足立 (Adachi),2015-12-13,03:01～04:00,0.0360,0.0330,0.0344,
足立 (Adachi),2015-12-13,02:01～03:00,0.0359,0.0320,0.0340,
足立 (Adachi),2015-12-13,01:01～02:00,0.0365,0.0323,0.0343,
足立 (Adachi),2015-12-13,00:01～01:00,0.0366,0.0327,0.0342,
足立 (Adachi),2015-12-12,23:01～24:00,0.0366,0.0322,0.0341,
足立 (Adachi),2015-12-12,22:01～23:00,0.0369,0.0322,0.0342,
足立 (Adachi),2015-12-12,21:01～22:00,0.0360,0.0319,0.0340,
足立 (Adachi),2015-12-12,20:01～21:00,0.0360,0.0318,0.0339,
足立 (Adachi),2015-12-12,19:01～20:00,0.0365,0.0315,0.0339,
足立 (Adachi),2015-12-12,18:01～19:00,0.0352,0.0318,0.0337,
足立 (Adachi),2015-12-12,17:01～18:00,0.0353,0.0319,0.0335,
足立 (Adachi),2015-12-12,16:01～17:00,0.0361,0.0308,0.0333,
足立 (Adachi),2015-12-12,15:01～16:00,0.0356,0.0318,0.0338,
足立 (Adachi),2015-12-12,14:01～15:00,0.0357,0.0312,0.0337,
足立 (Adachi),2015-12-12,13:01～14:00,0.0352,0.0318,0.0335,
足立 (Adachi),2015-12-12,12:01～13:00,0.0364,0.0311,0.0340,
足立 (Adachi),2015-12-12,11:01～12:00,0.0355,0.0319,0.0338,
足立 (Adachi),2015-12-12,10:01～11:00,0.0366,0.0320,0.0338,
足立 (Adachi),2015-12-12,09:01～10:00,0.0364,0.0319,0.0338,
足立 (Adachi),2015-12-12,08:01～09:00,0.0362,0.0317,0.0340,
足立 (Adachi),2015-12-12,07:01～08:00,0.0360,0.0317,0.0339,
足立 (Adachi),2015-12-12,06:01～07:00,0.0361,0.0323,0.0340,
足立 (Adachi),2015-12-12,05:01～06:00,0.0363,0.0322,0.0342,
足立 (Adachi),2015-12-12,04:01～05:00,0.0360,0.0324,0.0342,
足立 (Adachi),2015-12-12,03:01～04:00,0.0360,0.0322,0.0341,
足立 (Adachi),2015-12-12,02:01～03:00,0.0370,0.0326,0.0341,
足立 (Adachi),2015-12-12,01:01～02:00,0.0363,0.0322,0.0341,
足立 (Adachi),2015-12-12,00:01～01:00,0.0366,0.0317,0.0338,
足立 (Adachi),2015-12-11,23:01～24:00,0.0355,0.0318,0.0339,
足立 (Adachi),2015-12-11,22:01～23:00,0.0352,0.0318,0.0337,
足立 (Adachi),2015-12-11,21:01～22:00,0.0367,0.0312,0.0337,
足立 (Adachi),2015-12-11,20:01～21:00,0.0366,0.0329,0.0342,
足立 (Adachi),2015-12-11,19:01～20:00,0.0364,0.0321,0.0339,
足立 (Adachi),2015-12-11,18:01～19:00,0.0364,0.0306,0.0340,
足立 (Adachi),2015-12-11,17:01～18:00,0.0344,0.0303,0.0322,
足立 (Adachi),2015-12-11,16:01～17:00,0.0347,0.0296,0.0325,
足立 (Adachi),2015-12-11,15:01～16:00,0.0353,0.0316,0.0331,
足立 (Adachi),2015-12-11,14:01～15:00,0.0367,0.0308,0.0335,
足立 (Adachi),2015-12-11,13:01～14:00,0.0361,0.0318,0.0339,
足立 (Adachi),2015-12-11,12:01～13:00,0.0366,0.0312,0.0339,
足立 (Adachi),2015-12-11,11:01～12:00,0.0384,0.0320,0.0349,
足立 (Adachi),2015-12-11,10:01～11:00,0.0462,0.0361,0.0410,
足立 (Adachi),2015-12-11,09:01～10:00,0.0480,0.0418,0.0450,
足立 (Adachi),2015-12-11,08:01～09:00,0.0498,0.0411,0.0449,
足立 (Adachi),2015-12-11,07:01～08:00,0.0465,0.0411,0.0442,
足立 (Adachi),2015-12-11,06:01～07:00,0.0483,0.0415,0.0449,
足立 (Adachi),2015-12-11,05:01～06:00,0.0458,0.0383,0.0426,
足立 (Adachi),2015-12-11,04:01～05:00,0.0432,0.0369,0.0399,
足立 (Adachi),2015-12-11,03:01～04:00,0.0443,0.0376,0.0410,
足立 (Adachi),2015-12-11,02:01～03:00,0.0436,0.0364,0.0394,
足立 (Adachi),2015-12-11,01:01～02:00,0.0419,0.0362,0.0392,
足立 (Adachi),2015-12-11,00:01～01:00,0.0423,0.0366,0.0392,
足立 (Adachi),2015-12-10,23:01～24:00,0.0432,0.0360,0.0387,
足立 (Adachi),2015-12-10,22:01～23:00,0.0402,0.0347,0.0370,
足立 (Adachi),2015-12-10,21:01～22:00,0.0384,0.0337,0.0364,
足立 (Adachi),2015-12-10,20:01～21:00,0.0385,0.0347,0.0363,
足立 (Adachi),2015-12-10,19:01～20:00,0.0394,0.0342,0.0360,
足立 (Adachi),2015-12-10,18:01～19:00,0.0376,0.0338,0.0357,
足立 (Adachi),2015-12-10,17:01～18:00,0.0369,0.0334,0.0357,
足立 (Adachi),2015-12-10,16:01～17:00,0.0377,0.0329,0.0355,
足立 (Adachi),2015-12-10,15:01～16:00,0.0384,0.0328,0.0355,
足立 (Adachi),2015-12-10,14:01～15:00,0.0378,0.0332,0.0354,
足立 (Adachi),2015-12-10,13:01～14:00,0.0387,0.0325,0.0353,
足立 (Adachi),2015-12-10,12:01～13:00,0.0371,0.0337,0.0356,
足立 (Adachi),2015-12-10,11:01～12:00,0.0376,0.0338,0.0357,
足立 (Adachi),2015-12-10,10:01～11:00,0.0397,0.0339,0.0361,
足立 (Adachi),2015-12-10,09:01～10:00,0.0385,0.0344,0.0358,
足立 (Adachi),2015-12-10,08:01～09:00,0.0379,0.0329,0.0356,
足立 (Adachi),2015-12-10,07:01～08:00,0.0386,0.0342,0.0357,
足立 (Adachi),2015-12-10,06:01～07:00,0.0405,0.0337,0.0360,
足立 (Adachi),2015-12-10,05:01～06:00,0.0368,0.0324,0.0347,
足立 (Adachi),2015-12-10,04:01～05:00,0.0367,0.0330,0.0349,
足立 (Adachi),2015-12-10,03:01～04:00,0.0370,0.0327,0.0349,
足立 (Adachi),2015-12-10,02:01～03:00,0.0370,0.0322,0.0346,
足立 (Adachi),2015-12-10,01:01～02:00,0.0367,0.0326,0.0345,
足立 (Adachi),2015-12-10,00:01～01:00,0.0367,0.0321,0.0344,
足立 (Adachi),2015-12-09,23:01～24:00,0.0361,0.0324,0.0339,
足立 (Adachi),2015-12-09,22:01～23:00,0.0370,0.0305,0.0335,
足立 (Adachi),2015-12-09,21:01～22:00,0.0358,0.0310,0.0333,
足立 (Adachi),2015-12-09,20:01～21:00,0.0354,0.0306,0.0331,
足立 (Adachi),2015-12-09,19:01～20:00,0.0354,0.0311,0.0331,
足立 (Adachi),2015-12-09,18:01～19:00,0.0351,0.0305,0.0328,
足立 (Adachi),2015-12-09,17:01～18:00,0.0365,0.0320,0.0341,
足立 (Adachi),2015-12-09,16:01～17:00,0.0359,0.0324,0.0342,
足立 (Adachi),2015-12-09,15:01～16:00,0.0364,0.0328,0.0345,
足立 (Adachi),2015-12-09,14:01～15:00,0.0369,0.0323,0.0346,
足立 (Adachi),2015-12-09,13:01～14:00,0.0370,0.0323,0.0348,
足立 (Adachi),2015-12-09,12:01～13:00,0.0364,0.0326,0.0347,
足立 (Adachi),2015-12-09,11:01～12:00,0.0368,0.0332,0.0350,
足立 (Adachi),2015-12-09,10:01～11:00,0.0386,0.0335,0.0357,
足立 (Adachi),2015-12-09,09:01～10:00,0.0387,0.0331,0.0357,
足立 (Adachi),2015-12-09,08:01～09:00,0.0381,0.0340,0.0361,
足立 (Adachi),2015-12-09,07:01～08:00,0.0387,0.0330,0.0359,
足立 (Adachi),2015-12-09,06:01～07:00,0.0381,0.0334,0.0355,
足立 (Adachi),2015-12-09,05:01～06:00,0.0369,0.0327,0.0355,
足立 (Adachi),2015-12-09,04:01～05:00,0.0371,0.0334,0.0352,
足立 (Adachi),2015-12-09,03:01～04:00,0.0382,0.0335,0.0355,
足立 (Adachi),2015-12-09,02:01～03:00,0.0394,0.0331,0.0358,
足立 (Adachi),2015-12-09,01:01～02:00,0.0375,0.0335,0.0354,
足立 (Adachi),2015-12-09,00:01～01:00,0.0364,0.0329,0.0348,
足立 (Adachi),2015-12-08,23:01～24:00,0.0371,0.0315,0.0350,
足立 (Adachi),2015-12-08,22:01～23:00,0.0369,0.0320,0.0347,
足立 (Adachi),2015-12-08,21:01～22:00,0.0363,0.0320,0.0345,
足立 (Adachi),2015-12-08,20:01～21:00,0.0363,0.0321,0.0342,
足立 (Adachi),2015-12-08,19:01～20:00,0.0372,0.0321,0.0344,
足立 (Adachi),2015-12-08,18:01～19:00,0.0360,0.0319,0.0340,
足立 (Adachi),2015-12-08,17:01～18:00,0.0354,0.0314,0.0339,
足立 (Adachi),2015-12-08,16:01～17:00,0.0372,0.0317,0.0338,
足立 (Adachi),2015-12-08,15:01～16:00,0.0366,0.0314,0.0335,
足立 (Adachi),2015-12-08,14:01～15:00,0.0361,0.0320,0.0339,
足立 (Adachi),2015-12-08,13:01～14:00,0.0367,0.0324,0.0347,
足立 (Adachi),2015-12-08,12:01～13:00,0.0366,0.0327,0.0346,
足立 (Adachi),2015-12-08,11:01～12:00,0.0389,0.0327,0.0348,
足立 (Adachi),2015-12-08,10:01～11:00,0.0369,0.0331,0.0354,
足立 (Adachi),2015-12-08,09:01～10:00,0.0372,0.0327,0.0355,
足立 (Adachi),2015-12-08,08:01～09:00,0.0385,0.0336,0.0359,
足立 (Adachi),2015-12-08,07:01～08:00,0.0374,0.0336,0.0357,
足立 (Adachi),2015-12-08,06:01～07:00,0.0374,0.0325,0.0350,
足立 (Adachi),2015-12-08,05:01～06:00,0.0373,0.0331,0.0351,
足立 (Adachi),2015-12-08,04:01～05:00,0.0378,0.0337,0.0355,
足立 (Adachi),2015-12-08,03:01～04:00,0.0384,0.0341,0.0357,
足立 (Adachi),2015-12-08,02:01～03:00,0.0373,0.0335,0.0354,
足立 (Adachi),2015-12-08,01:01～02:00,0.0378,0.0333,0.0357,
足立 (Adachi),2015-12-08,00:01～01:00,0.0370,0.0328,0.0349,
足立 (Adachi),2015-12-07,23:01～24:00,0.0358,0.0323,0.0343,
足立 (Adachi),2015-12-07,22:01～23:00,0.0363,0.0318,0.0340,
足立 (Adachi),2015-12-07,21:01～22:00,0.0360,0.0323,0.0341,
足立 (Adachi),2015-12-07,20:01～21:00,0.0365,0.0324,0.0340,
足立 (Adachi),2015-12-07,19:01～20:00,0.0356,0.0319,0.0337,
足立 (Adachi),2015-12-07,18:01～19:00,0.0358,0.0319,0.0337,
足立 (Adachi),2015-12-07,17:01～18:00,0.0358,0.0307,0.0335,
足立 (Adachi),2015-12-07,16:01～17:00,0.0355,0.0312,0.0338,
足立 (Adachi),2015-12-07,15:01～16:00,0.0365,0.0325,0.0345,
足立 (Adachi),2015-12-07,14:01～15:00,0.0366,0.0323,0.0343,
足立 (Adachi),2015-12-07,13:01～14:00,0.0368,0.0324,0.0348,
足立 (Adachi),2015-12-07,12:01～13:00,0.0364,0.0324,0.0348,
足立 (Adachi),2015-12-07,11:01～12:00,0.0381,0.0330,0.0350,
足立 (Adachi),2015-12-07,10:01～11:00,0.0381,0.0334,0.0351,
足立 (Adachi),2015-12-07,09:01～10:00,0.0372,0.0333,0.0351,
足立 (Adachi),2015-12-07,08:01～09:00,0.0367,0.0327,0.0351,
足立 (Adachi),2015-12-07,07:01～08:00,0.0368,0.0328,0.0347,
足立 (Adachi),2015-12-07,06:01～07:00,0.0364,0.0330,0.0345,
足立 (Adachi),2015-12-07,05:01～06:00,0.0374,0.0328,0.0349,
足立 (Adachi),2015-12-07,04:01～05:00,0.0371,0.0334,0.0352,
足立 (Adachi),2015-12-07,03:01～04:00,0.0371,0.0332,0.0353,
足立 (Adachi),2015-12-07,02:01～03:00,0.0372,0.0328,0.0353,
足立 (Adachi),2015-12-07,01:01～02:00,0.0371,0.0333,0.0350,
足立 (Adachi),2015-12-07,00:01～01:00,0.0371,0.0335,0.0352,
